Weather in Oktyabrskiy

Russia / Vladimir Oblast     56°13′11″N   42°02′36″E
temp.,
°C
wind,
m/s
gust,
m/s
humid.,
%
clouds,
%
prec.,
mm/h
press.,
hPa
HPBL,
m
5 august, thu
thu500:00+15n236272 0.0 101672
03:00+15nw1158100 0.0 101711
06:00+16nne115899 0.0 101828
09:00+19ene114431 0.0 1018402
12:00+25sse12335 0.0 10181726
15:00+24sse1336100 0.0 10172118
18:00+21n1150100 0.0 101620
21:00+19e3752100 0.0 1015158
6 august, fri
fri600:00+18ese235389 0.0 101579
03:00+17se3861100 0.0 1015215
06:00+17sse31170100 0.1 1015379
09:00+15s3896100 1.6 1015325
12:00+15sse3795100 3.4 1016341
15:00+15se3698100 7.3 1015284
18:00+15ese3596100 2.2 1014122
21:00+15e3895100 2.3 1014188
7 august, sat
sat700:00+16e51291100 0.0 1013356
03:00+15e3795100 0.3 1013211
06:00+15e3796100 0.5 1013175
09:00+20ese358297 1.6 1013388
12:00+26s354797 0.4 10131011
15:00+23w126164 0.5 1013187
18:00+25e475540 0.0 1013289
21:00+19ese366598 0.0 101399
8 august, sun
sun800:00+20se386399 0.0 1013178
03:00+21sse31156100 0.0 1013283
06:00+20s3956100 0.0 1013233
09:00+25sse4742100 0.0 1012355
12:00+29ssw4631100 0.1 10121126
15:00+25wnw2355100 0.1 1013189
18:00+22w236598 0.0 1013105
21:00+18w26861 0.0 1014162
9 august, mon
mon900:00+17wsw25960 0.0 101486
03:00+15wnw25915 0.0 101597
06:00+16w278581 0.0 1015180
09:00+21wnw356169 0.0 1015781
12:00+25wnw464899 0.0 10151677
15:00+26nw454265 0.0 10142167
18:00+24wnw125322 0.0 1014411
21:00+19nnw126866 0.0 101439